Regional Weather Roundup
Issued by NWS Charleston, WV

Home | Current Version | Previous Version | Graphics & Text | Print | Product List | Glossary On
Versions: 1 2 3 4 5 6 7 8 9 10 11 12 13 14 15 16 17 18 19 20 21 22 23 24 25 26 27 28 29 30 31 32 33 34 35 36 37 38 39 40 41 42 43 44 45 46 47 48 49 50
000
ASUS41 KRLX 011410
RWRRLX
West Virginia Regional Weather Roundup
National Weather Service Charleston WV
1000 AM EDT WED APR 01 2015

Note: "fair" indicates few or no clouds below 12,000 feet with no
significant weather and/or obstructions to visibility.

WVZ003-011500-
Northern Panhandle of West Virginia

CITY           SKY/WX    TMP DP  RH WIND       PRES   REMARKS
WHEELING       SUNNY     39  26  59 SW3       30.12R
$$

WVZ009-011500-
Northwest West Virginia

CITY           SKY/WX    TMP DP  RH WIND       PRES   REMARKS
PARKERSBURG    SUNNY     41  28  60 S5        30.19R
$$

WVZ006-011500-
Western West Virginia

CITY           SKY/WX    TMP DP  RH WIND       PRES   REMARKS
HUNTINGTON     SUNNY     44  34  67 CALM      30.16R
$$

WVZ015-011500-
West Central West Virginia

CITY           SKY/WX    TMP DP  RH WIND       PRES   REMARKS
CHARLESTON     SUNNY     44  33  65 CALM      30.16R
$$

WVZ022-031-011500-
North Central West Virginia

CITY           SKY/WX    TMP DP  RH WIND       PRES   REMARKS
CLARKSBURG     SUNNY     39  27  62 VRB3      30.16R
MORGANTOWN     SUNNY     38  22  52 S5        30.15R
$$

WVZ025-035-042-045-011500-
Southern West Virginia

CITY           SKY/WX    TMP DP  RH WIND       PRES   REMARKS
BECKLEY        SUNNY     42  29  59 CALM      30.13R
LOGAN            N/A     45  34  65 CALM      30.12R
BLUEFIELD      SUNNY     45  29  53 W6        30.12R
LEWISBURG      SUNNY     43  30  59 CALM      30.12R
$$

WVZ047-011500-
Northern Mountains of West Virginia

CITY           SKY/WX    TMP DP  RH WIND       PRES   REMARKS
ELKINS         SUNNY     39  27  62 CALM      30.13R
$$

WVZ052-011500-
Eastern Panhandle of West Virginia

CITY           SKY/WX    TMP DP  RH WIND       PRES   REMARKS
MARTINSBURG    SUNNY     44  26  49 CALM      30.15R
PETERSBURG     SUNNY     43  18  36 SE3       30.16R
$$



USA.gov is the U.S. government's official web portal to all federal, state and local government web resources and services.